Back to catalog

PSLV R/B

AliveSSO
NORAD 44805·ROCKET BODY·🇮🇳 India

Launched Nov 27, 2019 from Satish Dhawan Space Centre

Loading…

Next Passes (next 24 hours)

TLE

FreshSource: Space-Track

Epoch: Sep 14, 2026, 14:06 UTC

1 44805U 19081B   26257.58786505  .00027969  00000-0  33527-3 0  9992
2 44805  97.1653 298.3502 0017443 123.6087 236.6839 15.60711392378245

Track PSLV R/B in real time with AllMySat

Download on the App Store